Regional Weather Roundup
Issued by NWS Kansas City/Pleasant Hill, MO

Home | Current Version | Previous Version | Text Only | Print | Product List | Glossary On
Versions: 1 2 3 4 5 6 7 8 9 10 11 12 13 14 15 16 17 18 19 20 21 22 23 24 25 26 27 28 29 30 31 32 33 34 35 36 37 38 39 40 41 42 43 44 45 46 47 48 49 50
000
ASUS43 KEAX 271310
RWREAX

WEATHER ROUNDUP FOR EASTERN KANSAS AND NORTHWEST MISSOURI
NATIONAL WEATHER SERVICE KANSAS CITY/PLEASANT HILL MO
800 AM CDT MON MAR 27 2017

KSZ040-057-103>105-MOZ028-029-037-043-271400-
...KANSAS CITY METROPOLITAN AREA...

CITY           SKY/WX    TMP DP  RH WIND       PRES   REMARKS
K.C. INTL      LGT RAIN  46  45  96 N10       29.89R FOG
K.C. DOWNTOWN  LGT RAIN  48  46  93 N7        29.88R FOG
LEES SUMMIT    LGT RAIN  46  46 100 N12       29.86R FOG
OLATHE - IXD   CLOUDY    45  44  97 N12       29.87R FOG
OLATHE - OJC   LGT RAIN  46  46 100 N12       29.86R
LAWRENCE       LGT RAIN  47  46  97 N9        29.88S

$$

MOZ001>008-011>017-020>025-030>033-038>040-044>046-053-054-271400-
...NORTHERN AND CENTRAL MISSOURI...

CITY           SKY/WX    TMP DP  RH WIND       PRES   REMARKS
ST. JOSEPH     LGT RAIN  46  46 100 N9        29.91R FOG
MOSBY          LGT RAIN  46  45  93 N6        29.89R
WARRENSBURG    DRIZZLE   46  45  93 N8        29.84R
WHITEMAN AFB   LGT RAIN  48  48 100 N8          N/A  FOG
CLINTON        CLOUDY    50  50 100 NE6       29.82R FOG
SEDALIA        LGT RAIN  50  49  96 E7        29.84R FOG
WARSAW         NOT AVBL
CHILLICOTHE      N/A     47  46  97 N7        29.90R
KIRKSVILLE     LGT RAIN  46  45  96 NE9       29.90R FOG

$$

MOZ041-047>049-056>058-063>065-088>090-097-271400-
...EASTERN AND SOUTHERN MISSOURI...

CITY           SKY/WX    TMP DP  RH WIND       PRES   REMARKS
ST. LOUIS INTL LGT RAIN  53  50  89 NE6       29.87F FOG
SPIRIT OF STL  RAIN      51  51 100 NE6       29.85F FOG
COLUMBIA       LGT RAIN  50  49  96 NE13      29.83R FOG
JEFFERSON CITY LGT RAIN  54  50  86 E8        29.83R FOG
ROLLA          CLOUDY    53  53 100 SE10      29.81S
OSAGE BEACH    CLOUDY   N/A N/A N/A E5        29.81R
SPRINGFIELD    LGT RAIN  55  54  96 S12       29.78R
BRANSON        LGT RAIN  54  54 100 E7        29.81S FOG
JOPLIN         CLOUDY    53  53 100 NW9       29.83R
WEST PLAINS    RAIN      55  54  96 CALM      29.87R FOG

$$

IAZ060-094-KSZ022-034>040-054-083-096-NEZ052-066-093-271400-
...KANSAS...SOUTHEAST NEBRASKA AND IOWA...

CITY           SKY/WX    TMP DP  RH WIND       PRES   REMARKS
TOPEKA         LGT RAIN  47  47 100 N9        29.88S
MANHATTAN      CLOUDY    47  44  90 N3        29.92R
EMPORIA        CLOUDY    45  45 100 N9        29.88R
CHANUTE        CLOUDY    50  47  89 N9        29.85R
WICHITA        CLOUDY    48  46  93 N9        29.92R
OMAHA          CLOUDY    45  38  76 N5        29.95R
LINCOLN        CLOUDY    44  41  89 N8        29.97R
FALLS CITY     CLOUDY    46  43  89 NE7       29.90F
LAMONI         CLOUDY    44  43  96 N12       29.90R
DES MOINES     CLOUDY    43  40  89 N9        29.93S

$$




USA.gov is the U.S. government's official web portal to all federal, state and local government web resources and services.